Location: *
(31.2983°S, 151.4094°E)
Time: 10:02:43
(UTC+00:00)

Cosmos 1603 - Pass Details

Date: 25 August 2019
Orbit: 832 x 859 km, 71.0° (Epoch: 15 September)

Event Time Altitude Azimuth Distance (km) Brightness Sun altitude
Rises 19:19:29 0° 327° (NNW) 3,408 6.6 -13.4°
Reaches altitude 10° 19:22:00 10° 322° (NW) 2,483 5.8 -12.8°
Maximum altitude 19:27:31 50° 247° (WSW) 1,093 3.9 -11.6°
Drops below altitude 10° 19:33:08 10° 172° (S) 2,519 6.2 -10.4°
Sets 19:35:43 0° 166° (SSE) 3,462 7.0 -9.9°
